BADR-4

Last updated on Jan. 29, 2020, 4:37 a.m. UTC

1 29526U 06051A   20028.79175160  .00000143  00000-0  00000+0 0  9991
2 29526   0.0526 336.6820 0005385 343.3534 118.4661  1.00271315 48518
UTC
Height (km)
Latitude
Longitude
Inclination
Orbital Period
UTC large
Height (km)
Speed (km/s)
/
Latitude / Longitude
Inclination (degrees)
Orbital Period (minutes)
Azimuth
Elevation
Range (km)
Doppler Factor
iOS Compass Heading
iOS Angle

Next 30 passes for location: Hong Kong

Rise time Rise Azimuth (degrees) Set time Set Azimuth (degrees) Duration Max altitude (degrees)

No matching passes for this satellites